Hourly Data Report for April 22, 2017

CLYDE RIVER A
NUNAVUT

70°29'09.000" N
68°31'01.000" W
26.50 m
2400804
71090
YCY

Download Data

Hourly Data (April 2017)
Hourly Data Report for April 22, 2017
TIME
LST
Temp Definition
°C
Dew Point Definition
°C
Rel Hum Definition
%
Precip. Amount Definition
mm

Wind Dir Definition
10's deg

Wind Spd Definition
km/h
Visibility Definition
km
Stn Press Definition
kPa
Hmdx Definition


Wind Chill Definition


Weather Definition


00:00 -21.8 -24.5 79 0.0 26 5 16.1 102.10   -26 LegendNANA
01:00 -22.4 -25.1 79 0.0 28 5 16.1 102.11   -27 LegendNANA
02:00 -22.8 -25.7 78 0.0 26 8 16.1 102.13   -30 LegendNANA
03:00 -21.8 -24.5 79 0.0 20 4 16.1 102.14   -25 LegendNANA
04:00 -21.9 -24.3 81 0.0 12 5 16.1 102.14   -26 LegendNANA
05:00 -23.0 -25.3 82 0.0   0 16.1 102.16     LegendNANA
06:00 -24.2 -27.3 76 0.0 11 5 16.1 102.18   -29 LegendNANA
07:00 -21.4 -24.2 78 0.0   0 16.1 102.19     LegendNANA
08:00 -19.7 -22.6 78 0.0 29 5 16.1 102.19   -24 LegendNANA
09:00 -18.0 -21.7 73 0.0 23 4 16.1 102.20   -21 LegendNANA
10:00 -17.8 -20.9 77 0.0 9 4 16.1 102.19   -21 LegendNANA
11:00 -17.3 -20.6 76 0.0   0 16.1 102.19     LegendNANA
12:00 -16.4 -19.2 79 0.0   0 11.3 102.19     LegendNANA
13:00 -15.7 -18.7 78 0.0   0 16.1 102.20     LegendNANA
14:00 -14.8 -17.3 81 0.0   0 16.1 102.21     Snow
15:00 -15.0 -17.4 82 0.0   0 12.9 102.22     Snow
16:00 -14.8 -17.2 82 0.0 1 4 16.1 102.20   -18 Snow
17:00 -15.7 -17.7 85 0.0 36 5 16.1 102.19   -19 LegendNANA
18:00 -17.0 -18.7 87 0.0 35 11 16.1 102.19   -24 LegendNANA
19:00 -19.6 -21.7 84 0.0 32 11 16.1 102.20   -27 LegendNANA
20:00 -18.6 -20.0 89 0.0 28 8 16.1 102.23   -25 LegendNANA
21:00 -17.3 -19.1 86 0.0 28 5 16.1 102.22   -21 LegendNANA
22:00 -17.9 -19.6 87 0.0 26 11 16.1 102.20   -25 LegendNANA
23:00 -18.9 -21.0 84 0.0 28 9 16.1 102.18   -25 LegendNANA

Notes on Data Quality.

Legend

  • E = Estimated
  • M = Missing
  • NA = Not Available*
  • [empty] = Indicates an unobserved value
Date modified: